Stations météo

réclame
Mon MeteoGroup
Feldberg/Mecklenburg, Allemagne (10282): Température de l'air & dewpoint: 19.02.2018 00:00:00 - 25.02.2018 00:00:00 (CET)Feldberg/Mecklenburg, Allemagne (10282): Température de l'air 5cm & Température de l'air -5cm: 19.02.2018 00:00:00 - 25.02.2018 00:00:00 (CET)Feldberg/Mecklenburg, Allemagne (10282): Température de l'air -20cm & Température de l'air -100cm: 19.02.2018 00:00:00 - 25.02.2018 00:00:00 (CET)Feldberg/Mecklenburg, Allemagne (10282): Vitesse du vent & gusts: 19.02.2018 00:00:00 - 25.02.2018 00:00:00 (CET)Feldberg/Mecklenburg, Allemagne (10282): Direction du vent: 19.02.2018 00:00:00 - 25.02.2018 00:00:00 (CET)Feldberg/Mecklenburg, Allemagne (10282): reduced air pressure: 19.02.2018 00:00:00 - 25.02.2018 00:00:00 (CET)Feldberg/Mecklenburg, Allemagne (10282): visibility: 19.02.2018 00:00:00 - 25.02.2018 00:00:00 (CET)Feldberg/Mecklenburg, Allemagne (10282): Ensoleillement: 19.02.2018 00:00:00 - 25.02.2018 00:00:00 (CET)Feldberg/Mecklenburg, Allemagne (10282): Quantités de précipitations: 19.02.2018 00:00:00 - 25.02.2018 00:00:00 (CET)
Date & Time tt [°C] td [°C] tt 5cm [°C] tt -5cm [°C] tt -20cm [°C] tt -100cm [°C] ff [km/h] ff [knt] fx [km/h] fx [knt] dd ppp [hPa] vv [km] sd [min] rr [mm]
25.02.2018 00:00:00 -7,5 -11,3 -10,6 -3,3 0,3 2,6 8 5 15 8 NE 1034,6 40 0 0,0
24.02.2018 23:00:00 -6,4 -11,5 -8,0 -2,9 0,3 2,6 8 4 15 8 ENE 1034,3 38 0 0,0
24.02.2018 22:00:00 -5,9 -11,8 -7,3 -2,2 0,3 2,6 10 6 21 12 ENE 1034,2 29 0 0,0
24.02.2018 21:00:00 -5,2 -12,3 -6,4 -1,0 0,3 2,6 16 9 31 17 ENE 1034,0 58 0 0,0
24.02.2018 20:00:00 -4,7 -12,1 -5,6 -0,1 0,3 2,6 20 11 34 18 ENE 1033,8 59 0 0,0
24.02.2018 19:00:00 -4,2 -11,4 -5,2 0,0 0,3 2,6 16 9 35 19 NE 1033,6 54 0 0,0
24.02.2018 18:00:00 -3,7 -11,3 -4,8 0,0 0,3 2,6 20 11 35 19 NE 1033,1 49 17 0,0
24.02.2018 17:00:00 -2,8 -10,9 -2,7 0,0 0,3 2,6 23 12 42 23 NE 1032,6 46 53 0,0
24.02.2018 16:00:00 -1,8 -11,2 -0,3 0,0 0,3 2,6 22 12 38 21 ENE 1032,3 46 49 0,0
24.02.2018 15:00:00 -1,6 -10,8 0,0 0,1 0,3 2,6 24 13 41 22 NE 1032,1 17 54 0,0
24.02.2018 14:00:00 -1,2 -10,5 0,8 -0,1 0,3 2,6 26 14 42 23 ENE 1031,9 31 47 0,0
24.02.2018 13:00:00 -1,2 -8,3 2,7 -0,2 0,3 2,6 19 11 34 18 NE 1031,9 42 36 0,0
24.02.2018 12:00:00 -2,4 -7,7 -1,1 -0,2 0,3 2,6 21 11 42 23 ENE 1032,2 15 24 0,0
24.02.2018 11:00:00 -1,7 -8,0 0,8 -0,3 0,3 2,6 26 14 40 22 NE 1031,8 23 43 0,0
24.02.2018 10:00:00 -2,3 -7,2 -1,5 -0,6 0,3 2,6 17 9 34 18 NE 1031,8 33 22 0,0
24.02.2018 09:00:00 -2,8 -7,1 -2,5 -1,2 0,3 2,6 13 7 32 17 NE 1031,4 53 15 0,0
24.02.2018 08:00:00 -2,8 -7,8 -3,1 -1,5 0,3 2,6 20 11 31 17 NNE 1031,0 51 0 0,0
24.02.2018 07:00:00 -2,5 -8,3 -2,8 -1,3 0,3 2,6 23 12 37 20 NE 1030,6 24 0 0,0
24.02.2018 06:00:00 -2,0 -5,7 -2,3 -1,0 0,3 2,6 19 10 39 21 ENE 1029,9 18 0 0,1
24.02.2018 05:00:00 -1,7 -3,4 -1,9 -0,9 0,3 2,6 14 7 21 11 NNE 1029,2 10 0 0,0
24.02.2018 04:00:00 -2,6 -4,3 -2,6 -0,9 0,4 2,6 10 5 16 8 NNW 1028,8 11 0 0,0
24.02.2018 03:00:00 -3,2 -5,6 -3,0 -0,9 0,4 2,6 10 6 19 10 NW 1028,8 12 0 0,0
24.02.2018 02:00:00 -3,5 -5,6 -3,3 -0,9 0,4 2,6 8 4 15 8 NNW 1028,9 11 0 0,0
24.02.2018 01:00:00 -3,7 -6,2 -3,5 -0,7 0,4 2,6 8 4 12 6 NW 1028,8 14 0 0,0
24.02.2018 00:00:00 -3,7 -5,7 -3,5 -0,6 0,4 2,6 3 2 5 3 W 1028,8 15 0 0,0
23.02.2018 23:00:00 -5,3 -7,0 -7,9 -0,5 0,4 2,6 5 3 10 5 N 1029,0 13 0 0,0
23.02.2018 22:00:00 -5,1 -7,3 -7,2 -0,1 0,4 2,6 8 5 13 7 NE 1029,1 14 0 0,0
23.02.2018 21:00:00 -4,6 -7,4 -6,1 0,0 0,4 2,6 10 6 13 7 NE 1028,6 15 0 0,0
23.02.2018 20:00:00 -4,4 -7,8 -6,2 0,0 0,4 2,6 9 5 14 7 NNE 1028,4 16 0 0,0
23.02.2018 19:00:00 -4,1 -9,0 -6,0 0,0 0,4 2,6 8 4 13 7 NE 1028,1 16 0 0,0
23.02.2018 18:00:00 -3,6 -9,0 -5,2 0,0 0,4 2,6 8 4 14 7 NE 1028,0 17 10 0,0
23.02.2018 17:00:00 -2,7 -9,8 -2,8 0,0 0,4 2,6 8 4 16 9 E 1027,7 21 22 0,0
23.02.2018 16:00:00 -2,5 -10,4 -2,3 0,0 0,4 2,6 11 6 23 12 NE 1027,9 19 51 0,0
23.02.2018 15:00:00 -2,2 -10,3 0,2 0,0 0,4 2,6 13 7 23 13 NE 1028,1 17 60 0,0
23.02.2018 14:00:00 -3,0 -10,6 -0,7 -0,1 0,4 2,6 14 8 23 13 NE 1028,5 15 60 0,0
23.02.2018 13:00:00 -3,3 -8,8 -0,8 -0,1 0,4 2,6 16 8 29 16 NE 1028,5 11 60 0,0
23.02.2018 12:00:00 -4,1 -9,2 -1,2 -0,2 0,4 2,6 13 7 22 12 E 1028,8 9 59 0,0
23.02.2018 11:00:00 -5,0 -9,1 -3,0 -0,3 0,4 2,6 12 6 20 11 ENE 1028,9 8 59 0,0
23.02.2018 10:00:00 -5,6 -9,1 -4,3 -0,7 0,4 2,6 12 6 17 9 E 1028,5 7 60 0,0
23.02.2018 09:00:00 -6,1 -8,9 -4,8 -1,7 0,4 2,6 11 6 18 10 ENE 1028,2 7 60 0,0
23.02.2018 08:00:00 -6,5 -8,9 -6,8 -2,4 0,4 2,6 11 6 18 10 ENE 1027,9 8 11 0,0
23.02.2018 07:00:00 -6,3 -8,6 -7,3 -2,0 0,5 2,6 10 5 18 10 ENE 1027,4 6 0 0,0
23.02.2018 06:00:00 -5,3 -7,8 -5,9 -1,2 0,5 2,6 11 6 24 13 ENE 1027,0 8 0 0,0
23.02.2018 05:00:00 -4,5 -6,4 -4,6 -0,9 0,5 2,6 15 8 23 12 ENE 1026,7 6 0 0,0
23.02.2018 04:00:00 -4,7 -6,7 -4,9 -0,9 0,5 2,6 10 5 16 9 NE 1026,3 8 0 0,0
23.02.2018 03:00:00 -5,2 -7,0 -7,2 -0,8 0,5 2,6 8 4 14 7 N 1026,6 11 0 0,0
23.02.2018 02:00:00 -4,7 -6,7 -6,6 -0,6 0,5 2,6 9 5 18 10 NNE 1026,8 13 0 0,0
23.02.2018 01:00:00 -4,4 -6,2 -6,5 -0,3 0,5 2,6 8 4 16 9 NE 1027,1 12 0 0,0
23.02.2018 00:00:00 -3,6 -6,0 -5,2 0,0 0,5 2,6 11 6 16 9 NE 1027,3 15 0 0,0
22.02.2018 23:00:00 -3,5 -6,0 -6,0 0,0 0,5 2,6 8 4 16 9 NE 1027,1 15 0 0,0
22.02.2018 22:00:00 -2,2 -4,3 -3,6 0,0 0,5 2,6 10 6 19 10 NE 1027,0 12 0 0,0
22.02.2018 21:00:00 -1,4 -3,4 -2,1 0,0 0,5 2,6 12 6 22 12 ENE 1026,6 9 0 0,0
22.02.2018 20:00:00 -1,1 -3,8 -1,6 0,0 0,5 2,6 10 6 17 9 ENE 1026,7 11 0 0,0
22.02.2018 19:00:00 -1,1 -3,1 -1,3 0,0 0,5 2,6 9 5 11 6 E 1026,3 8 0 0,0
22.02.2018 18:00:00 -0,9 -2,7 -1,2 0,0 0,5 2,6 9 5 15 8 ESE 1026,2 6 0 0,0
22.02.2018 17:00:00 -0,2 -2,6 -0,5 0,0 0,5 2,6 8 5 12 6 E 1026,0 8 0 0,0
22.02.2018 16:00:00 0,2 -2,7 0,4 0,0 0,5 2,6 8 4 11 6 NNE 1025,8 10 0 0,0
22.02.2018 15:00:00 0,3 -2,4 0,7 0,0 0,5 2,6 7 4 10 5 NE 1026,1 9 5 0,0
22.02.2018 14:00:00 -0,1 -2,6 0,6 0,0 0,5 2,6 4 2 10 5 NNE 1026,5 7 0 0,0
22.02.2018 13:00:00 -0,1 -2,6 1,0 0,0 0,5 2,6 3 2 8 4 N 1027,0 5 4 0,0
22.02.2018 12:00:00 -0,3 -2,8 0,4 -0,1 0,5 2,6 2 1 5 3 NE 1027,3 7 0 0,0
22.02.2018 11:00:00 -0,9 -2,9 -1,0 -0,1 0,5 2,6 2 1 5 3 W 1027,2 9 0 0,4
22.02.2018 10:00:00 -1,6 -2,6 -1,5 -0,1 0,5 2,6 3 2 9 5 SSW 1027,3 2,5 0 0,2
22.02.2018 09:00:00 -2,1 -3,4 -1,6 -0,1 0,5 2,6 5 3 10 5 NW 1027,3 6 0 0,0
22.02.2018 08:00:00 -3,8 -4,7 -3,5 -0,2 0,5 2,6 3 2 8 5 NW 1027,3 7 0 0,0
22.02.2018 07:00:00 -4,1 -4,8 -4,1 -0,1 0,5 2,6 3 2 8 5 NNW 1027,0 7 0 0,0
22.02.2018 06:00:00 -4,2 -5,0 -4,5 -0,1 0,5 2,6 7 4 12 6 NNW 1027,2 4,8 0 0,0
22.02.2018 05:00:00 -4,2 -4,8 -4,8 0,0 0,5 2,6 0 0 8 5 N 1027,2 0,1 0 0,0
22.02.2018 04:00:00 -4,1 -4,4 -4,4 0,0 0,5 2,6 7 4 13 7 NNW 1027,4 0,6 0 0,0
22.02.2018 03:00:00 -4,2 -5,0 -5,3 0,0 0,5 2,6 0 0 6 4 N 1027,3 3,8 0 0,0
22.02.2018 02:00:00 -3,4 -4,1 -6,6 0,0 0,5 2,6 4 2 10 5 N 1027,8 4,1 0 0,0
22.02.2018 01:00:00 -2,9 -3,5 -4,0 0,0 0,5 2,6 9 5 11 6 N 1027,7 3,0 0 0,0
22.02.2018 00:00:00 -2,0 -3,1 -3,3 0,0 0,5 2,6 5 3 11 6 NNE 1027,6 4,7 0 0,0
21.02.2018 23:00:00 -2,3 -3,5 -3,1 0,0 0,5 2,6 5 3 13 7 NE 1027,6 5 0 0,0
21.02.2018 22:00:00 -1,4 -2,8 -2,1 0,0 0,5 2,6 9 5 17 9 ENE 1027,7 8 0 0,0
21.02.2018 21:00:00 -1,6 -3,0 -3,4 0,0 0,5 2,6 10 5 19 11 NNE 1027,3 9 0 0,0
21.02.2018 20:00:00 -0,7 -2,5 -1,8 0,0 0,5 2,6 11 6 16 8 N 1027,0 13 0 0,0
21.02.2018 19:00:00 -0,2 -2,5 -1,0 0,0 0,5 2,6 13 7 19 10 N 1026,7 15 0 0,0
21.02.2018 18:00:00 0,3 -2,5 -0,6 -0,1 0,5 2,6 9 5 18 10 N 1026,3 23 0 0,0
21.02.2018 17:00:00 0,9 -2,5 0,3 0,4 0,5 2,6 12 6 22 12 NNE 1026,2 22 3 0,0
21.02.2018 16:00:00 2,2 -4,9 3,9 1,3 0,5 2,6 12 6 22 12 N 1025,9 20 58 0,0
21.02.2018 15:00:00 2,1 -4,6 2,7 0,3 0,5 2,6 15 8 23 12 NNE 1026,2 20 28 0,0
21.02.2018 14:00:00 2,2 -4,7 3,1 0,1 0,5 2,6 15 8 26 14 N 1026,5 18 16 0,0
21.02.2018 13:00:00 1,9 -5,8 2,5 0,0 0,5 2,6 12 7 20 11 NNE 1026,9 22 12 0,0
21.02.2018 12:00:00 2,5 -6,2 5,4 0,0 0,5 2,6 9 5 19 10 NE 1026,7 21 60 0,0
21.02.2018 11:00:00 2,1 -6,8 4,8 -0,1 0,5 2,6 7 4 10 6 ENE 1026,6 20 60 0,0
21.02.2018 10:00:00 1,1 -4,3 2,0 -0,1 0,5 2,6 4 2 9 5 E 1026,5 11 60 0,0
21.02.2018 09:00:00 -0,6 -4,2 0,4 -0,1 0,5 2,6 6 4 10 6 NNE 1026,6 8 40 0,0
21.02.2018 08:00:00 -2,2 -4,6 -4,2 -0,2 0,5 2,6 8 4 11 6 NNE 1026,3 8 0 0,0
21.02.2018 07:00:00 -1,1 -4,6 -1,9 -0,1 0,5 2,6 8 5 16 8 N 1026,0 10 0 0,0
21.02.2018 06:00:00 -1,0 -4,9 -2,0 -0,1 0,5 2,6 10 6 13 7 NNE 1025,9 11 0 0,0
21.02.2018 05:00:00 -2,0 -4,7 -3,6 -0,1 0,5 2,6 9 5 12 6 NNE 1025,6 10 0 0,0
21.02.2018 04:00:00 -2,2 -5,3 -5,3 0,0 0,5 2,6 8 5 14 8 NNE 1025,5 10 0 0,0
21.02.2018 03:00:00 -1,0 -5,3 -2,0 0,0 0,5 2,6 10 6 13 7 NNE 1025,6 11 0 0,0
21.02.2018 02:00:00 -1,2 -5,3 -2,0 0,0 0,5 2,6 10 5 16 8 NNE 1025,5 10 0 0,0
21.02.2018 01:00:00 -2,4 -5,7 -4,6 0,0 0,5 2,6 11 6 14 8 NNE 1025,5 9 0 0,0
21.02.2018 00:00:00 -2,5 -5,6 -4,5 0,0 0,5 2,6 11 6 14 8 NNE 1025,1 9 0 0,0
20.02.2018 23:00:00 -2,2 -5,6 -4,6 0,0 0,5 2,6 9 5 16 9 NNE 1024,8 10 0 0,0
20.02.2018 22:00:00 -1,8 -5,6 -3,7 0,0 0,5 2,6 9 5 16 9 NE 1024,4 11 0 0,0
20.02.2018 21:00:00 -1,3 -5,5 -3,5 0,0 0,5 2,6 10 5 16 9 NE 1024,0 11 0 0,0
20.02.2018 20:00:00 -1,6 -5,0 -4,2 0,0 0,5 2,6 11 6 16 9 NE 1023,6 10 0 0,0
20.02.2018 19:00:00 -0,9 -5,0 -3,6 0,1 0,6 2,6 10 5 19 10 NE 1023,1 10 0 0,0
20.02.2018 18:00:00 0,4 -5,1 -1,8 0,1 0,6 2,7 11 6 18 10 ENE 1022,5 12 0 0,0
20.02.2018 17:00:00 1,3 -5,2 0,1 0,7 0,6 2,7 14 8 29 16 E 1022,0 11 58 0,0
20.02.2018 16:00:00 1,8 -5,3 2,2 2,3 0,5 2,7 16 9 29 16 E 1021,7 17 59 0,0
20.02.2018 15:00:00 1,8 -5,8 2,7 2,7 0,4 2,7 16 9 29 16 E 1021,7 13 60 0,0
20.02.2018 14:00:00 1,4 -5,3 1,9 1,3 0,3 2,7 17 9 29 15 E 1021,7 11 37 0,0
20.02.2018 13:00:00 1,8 -3,6 3,6 0,0 0,3 2,7 13 7 23 13 E 1021,6 8 54 0,0
20.02.2018 12:00:00 1,2 -4,7 2,7 0,0 0,3 2,7 16 9 29 16 ESE 1021,8 10 60 0,0
20.02.2018 11:00:00 0,7 -4,7 2,0 0,0 0,3 2,7 18 10 27 14 ESE 1021,7 10 60 0,0
20.02.2018 10:00:00 -0,3 -4,3 0,5 0,0 0,3 2,7 16 9 26 14 E 1021,7 7 59 0,0
20.02.2018 09:00:00 -1,0 -4,3 -0,5 0,0 0,3 2,7 14 8 22 12 E 1021,6 7 20 0,0
20.02.2018 08:00:00 -1,7 -4,3 -2,5 0,0 0,3 2,7 10 6 16 9 E 1021,3 5 0 0,0
20.02.2018 07:00:00 -1,5 -4,0 -2,3 0,0 0,3 2,7 9 5 17 9 ENE 1021,3 5 0 0,0
20.02.2018 06:00:00 -1,6 -4,1 -3,0 0,0 0,3 2,7 10 5 14 8 ENE 1021,0 5 0 0,0
20.02.2018 05:00:00 -1,3 -4,0 -2,0 0,0 0,3 2,7 10 5 16 9 ENE 1021,1 5 0 0,0
20.02.2018 04:00:00 -1,3 -3,9 -2,1 0,0 0,3 2,7 11 6 15 8 ENE 1021,0 5 0 0,0
20.02.2018 03:00:00 -1,8 -3,8 -3,3 0,0 0,3 2,7 6 4 10 6 NE 1021,1 4,8 0 0,0
20.02.2018 02:00:00 -1,9 -4,0 -4,0 0,0 0,3 2,7 7 4 10 5 NNE 1021,0 6 0 0,0
20.02.2018 01:00:00 -0,9 -3,8 -2,3 0,0 0,3 2,7 8 4 11 6 ENE 1020,9 7 0 0,0
20.02.2018 00:00:00 -0,7 -3,9 -2,4 0,0 0,3 2,7 8 4 10 6 ENE 1020,9 9 0 0,0
19.02.2018 23:00:00 -0,9 -3,5 -2,5 0,0 0,3 2,7 6 3 8 4 E 1020,8 8 0 0,0
19.02.2018 22:00:00 -0,6 -2,8 -1,7 0,0 0,3 2,7 4 2 7 4 ENE 1020,8 8 0 0,0
19.02.2018 21:00:00 -0,5 -3,1 -2,9 0,0 0,3 2,7 6 3 7 4 ESE 1020,9 9 0 0,0
19.02.2018 20:00:00 -0,5 -2,7 -3,1 0,0 0,3 2,7 3 1 5 3 ESE 1020,9 10 0 0,0
19.02.2018 19:00:00 -0,2 -2,8 -2,6 0,0 0,3 2,7 0 0 5 3 N 1020,8 5 0 0,0
19.02.2018 18:00:00 0,3 -2,5 -2,5 0,0 0,3 2,7 0 0 9 5 N 1020,6 11 0 0,0
19.02.2018 17:00:00 2,3 -2,9 0,6 1,0 0,3 2,7 8 5 15 8 SW 1020,5 14 59 0,0
19.02.2018 16:00:00 3,9 -2,8 3,6 2,7 0,3 2,7 11 6 18 10 SSW 1020,5 17 60 0,0
19.02.2018 15:00:00 4,8 -3,1 5,8 3,5 0,3 2,7 11 6 19 10 SW 1020,6 16 60 0,0
19.02.2018 14:00:00 3,8 -3,3 5,0 2,6 0,2 2,7 6 3 16 9 SSE 1020,8 17 57 0,0
19.02.2018 13:00:00 2,9 -3,2 2,7 0,0 0,2 2,7 7 4 16 9 SSE 1021,3 16 49 0,0
19.02.2018 12:00:00 2,6 -3,4 3,0 0,0 0,2 2,7 6 3 13 7 SSE 1021,9 14 59 0,0
19.02.2018 11:00:00 1,1 -3,5 2,0 0,0 0,2 2,7 8 4 17 9 S 1022,1 15 43 0,0
19.02.2018 10:00:00 -0,1 -3,9 0,0 0,0 0,2 2,7 11 6 18 10 S 1022,7 15 27 0,0
19.02.2018 09:00:00 -0,7 -4,0 -1,0 0,0 0,2 2,7 11 6 15 8 S 1022,9 17 5 0,0
19.02.2018 08:00:00 -1,3 -4,4 -1,7 0,0 0,2 2,7 8 5 13 7 S 1023,2 17 0 0,0
19.02.2018 07:00:00 -1,2 -4,3 -2,0 0,0 0,2 2,7 9 5 14 7 S 1023,2 18 0 0,0
19.02.2018 06:00:00 -1,0 -4,3 -1,6 0,0 0,2 2,7 8 4 13 7 SSE 1023,2 18 0 0,0
19.02.2018 05:00:00 -1,1 -4,2 -1,9 0,0 0,2 2,7 6 4 11 6 SSE 1023,7 17 0 0,0
19.02.2018 04:00:00 -0,9 -4,0 -1,9 0,0 0,2 2,7 5 3 9 5 SSE 1024,2 19 0 0,0
19.02.2018 03:00:00 -0,9 -4,2 -1,4 0,0 0,2 2,7 7 4 10 5 S 1024,8 22 0 0,0
19.02.2018 02:00:00 -0,8 -4,3 -1,4 0,0 0,2 2,7 7 4 9 5 S 1025,4 25 0 0,0
19.02.2018 01:00:00 -1,6 -3,9 -3,0 0,0 0,2 2,7 4 2 5 3 SSE 1026,0 26 0 0,0
19.02.2018 00:00:00 -0,8 -4,6 -3,0 0,0 0,2 2,7 3 2 6 4 SE 1026,5 32 0 0,0

tt = Température de l'air
td = dewpoint
tt 5cm = Température de l'air 5cm
tt -5cm = Température de l'air -5cm
tt -20cm = Température de l'air -20cm
tt -100cm = Température de l'air -100cm
ff = Vitesse du vent
fx = gusts
dd = Direction du vent
ppp = reduced air pressure
vv = visibility
sd = Ensoleillement
rr = Quantités de précipitations

stations d'obs. à proximité